Location: Boiro
(42.6475°N, 8.8834°W)
Time: 12:08:55
(UTC+01:00)

Altair - Pass Details

Date: 06 December 2021
Orbit: 1501 x 1683 km, 47.2° (Epoch: 21 January)

Event Time Altitude Azimuth Distance (km) Brightness Sun altitude
Rises 21:38:27 0° 293° (WNW) 4,690 10.9 -39.0°
Reaches altitude 10° 21:41:30 10° 293° (WNW) 3,689 10.1 -39.6°
Enters shadow 21:49:07 65° 282° (WNW) 1,633 7.6 -40.9°
